[Iaude] MPEC K126: 2023 PK = 2010 ON138

mpec at cfa.harvard.edu mpec at cfa.harvard.edu
Wed May 29 13:34:55 EDT 2024


M.P.E.C. 2024-K126                                 Issued 2024 May 29, 17:32 UT

     The Minor Planet Electronic Circulars contain information on unusual
         minor planets, routine data on comets and natural satellites,
         and occasional editorial announcements.  They are published
    on behalf of Division F of the International Astronomical Union by the
          Minor Planet Center, Smithsonian Astrophysical Observatory,
                          Cambridge, MA 02138, U.S.A.
			  
             Prepared using the Tamkin Foundation Computer Network

                              MPC at CFA.HARVARD.EDU
            URL https://www.minorplanetcenter.net/    ISSN 1523-6714

                              2023 PK = 2010 ON138                              

                           Revision to MPEC 2023-P45

Orbital elements:
2023 PK = 2010 ON138                                     Earth MOID = 0.0831 AU
Id. P. VanWylen
Epoch 2024 Mar. 31.0 TT = JDT 2460400.5                 Veres                   
M 186.73432              (2000.0)            P               Q                  
n   0.60640722     Peri.   86.80065     -0.76365578     +0.59663876             
a   1.3823769      Node   129.66730     -0.64176239     -0.74321991             
e   0.4125787      Incl.   18.69102     +0.07050453     -0.30273149             
P   1.63           H   21.15          G   0.15           U   1                  
Residuals in seconds of arc
100723 C51  0.4-  0.1-    230807 474  1.1-  0.4-    230808 106  0.6-  0.2+
100724 C51  0.2-  0.3-    230807 L81  0.1+  0.1-    230808 M21  0.6+  0.3+
100724 C51  0.5-  0.0     230807 L81  0.5+  0.6-    230810 474  0.1+  0.0
100724 C51  0.0   0.1+    230807 L81  1.1+  1.0-    230810 474  0.4-  1.3-
100724 C51  0.6+  0.3-    230807 Y05  1.1+  1.3-    230810 474  1.5-  0.8-
100724 C51  0.2-  0.1-    230807 Y05  1.0+  1.7-    230810 474  0.0   0.4-
100724 C51  0.7+  0.8+    230807 Y05  0.2-  0.7-    230810 474  0.6+  0.2-
230807 W94  0.7+  0.5-    230808 474  0.1-  0.1-    230810 474  0.3-  0.3+
230807 W94  1.3+  0.8-    230808 474  0.2+  0.1+    230816 474  0.2+  0.1-
230807 W94  0.3-  0.2+    230808 474  0.4+  0.5+    230816 474  0.9-  1.0-
230807 X10  0.4+  0.2+    230808 474  0.5+  0.6+    230816 474  0.2+  0.6-
230807 X10  0.1-  0.4-    230808 106  0.3+  0.2-    230816 474  0.6+  0.8-
230807 X10  0.5-  0.5-    230808 B74  0.1-  0.1+    230816 474  2.2-  1.0-
230807 474  0.9-  1.0+    230808 B74  0.1-  0.6+    230816 474  0.2-  0.6-
230807 474  0.3-  0.3-    230808 106  0.2-  0.6-
230807 474  0.8+  0.7-    230808 B74  0.2-  0.3-

Ephemeris:
2023 PK                  a,e,i = 1.38, 0.41, 19                  q = 0.8120
Date    TT    R. A. (2000) Decl.     Delta      r    Elong.  Phase     V
2024 04 29    03 03 42.5 +04 35 09   2.8913  1.9270    13.6     7.0    25.4
...
2024 05 14    03 34 05.6 +06 55 26   2.8813  1.9040    11.9     6.3    25.3
...
2024 05 22    03 50 41.2 +08 02 41   2.8650  1.8888    12.4     6.6    25.3
...
2024 05 28    04 03 19.4 +08 49 27   2.8480  1.8760    13.2     7.1    25.3
2024 05 29    04 05 26.7 +08 56 56   2.8448  1.8738    13.4     7.2    25.3
2024 05 30    04 07 34.4 +09 04 19   2.8415  1.8715    13.6     7.3    25.3
...
2024 06 05    04 20 26.8 +09 46 40   2.8192  1.8572    14.9     8.1    25.3
...
2024 06 13    04 37 54.0 +10 37 39   2.7833  1.8362    17.0     9.3    25.3
...
2024 06 28    05 11 33.5 +11 55 28   2.6983  1.7912    21.5    12.0    25.3

M. P. C. Staff               (C) Copyright 2024 MPC           M.P.E.C. 2024-K126





More information about the Iaude mailing list